Regional Weather Roundup
Issued by NWS Boston, MA

Home | Current Version | Previous Version | Text Only | Print | Product List | Glossary On
Versions: 1 2 3 4 5 6 7 8 9 10 11 12 13 14 15 16 17 18 19 20 21 22 23 24 25 26 27 28 29 30 31 32 33 34 35 36 37 38 39 40 41 42 43 44 45 46 47 48 49 50
000
ASUS41 KBOX 302310
RWRBOX

REGIONAL WEATHER ROUNDUP
NATIONAL WEATHER SERVICE TAUNTON MA
700 PM EDT FRI SEP 30 2016

NOTE:  "FAIR" INDICATES FEW OR NO CLOUDS BELOW 12,000 FEET WITH NO
SIGNIFICANT WEATHER AND/OR OBSTRUCTIONS TO VISIBILITY.

MAZALL-010000-
EASTERN MASSACHUSETTS

CITY           SKY/WX    TMP DP  RH WIND       PRES   REMARKS
BOSTON         LGT RAIN  56  54  93 NE15      30.39S FOG
BEVERLY        CLOUDY    56  51  84 NE10      30.39F
LAWRENCE       CLOUDY    57  47  69 NE13G20   30.42F
BEDFORD        LGT RAIN  54  48  80 NE8       30.39S
BLUE HILL        N/A     53  52  96 NE16G23   30.36S
NORWOOD        LGT RAIN  56  53  90 NE6       30.37S FOG
MARSHFIELD     LGT RAIN  59  57  94 NE14G22   30.37S
PLYMOUTH       CLOUDY    57  55  93 NE10      30.36S
TAUNTON        CLOUDY    57  55  93 NE7       30.35S
NEW BEDFORD    CLOUDY    58  55  90 NE14      30.32F
$$

MAZALL-010000-
CAPE COD AND THE ISLANDS

CITY           SKY/WX    TMP DP  RH WIND       PRES   REMARKS
FALMOUTH       LGT RAIN  57  57 100 E12G21    30.34S
HYANNIS        LGT RAIN  58  56  93 NE10      30.32F
CHATHAM        LGT RAIN  58  57  97 NE15G24   30.35S FOG
PROVINCETOWN   CLOUDY    58  56  93 E13       30.37F
NANTUCKET      LGT RAIN  59  57  93 NE18G28   30.30S FOG
MARTHAS VNYRD  LGT RAIN  59  58  96 NE23G33   30.30F FOG
$$

MAZALL-010000-
CENTRAL AND WESTERN MASSACHUSETTS

CITY           SKY/WX    TMP DP  RH WIND       PRES   REMARKS
WORCESTER      LGT RAIN  50  47  89 NE12G21   30.37S FOG
FITCHBURG      CLOUDY    55  46  71 NE7       30.41S
ORANGE         CLOUDY    54  47  77 NE9       30.39S
SPRINGFIELD    LGT RAIN  52  50  93 NE10      30.36S
WESTFIELD      LGT RAIN  53  51  93 N9        30.37S FOG
NORTH ADAMS    CLOUDY    56  44  64 E12       30.35F
PITTSFIELD     CLOUDY    52  46  80 E7        30.34S
$$

RIZALL-010000-
RHODE ISLAND

CITY           SKY/WX    TMP DP  RH WIND       PRES   REMARKS
PROVIDENCE     RAIN      57  54  89 NE12      30.35S FOG
NEWPORT        CLOUDY    57  56  96 NE13G22   30.32R
BLOCK ISLAND   LGT RAIN  59  57  94 NE22G33   30.28S FOG
SMITHFIELD     LGT RAIN  55  53  93 NE12      30.36S
WESTERLY       CLOUDY    58  54  86 NE10      30.30S FOG
$$

CTZALL-010000-
CONNECTICUT

CITY           SKY/WX    TMP DP  RH WIND       PRES   REMARKS
BRADLEY INTL   LGT RAIN  53  51  93 N14       30.35F FOG
HARTFORD       CLOUDY    55  53  93 N12       30.33S
BRIDGEPORT     CLOUDY    58  54  86 NE16      30.28R
DANBURY        LGT RAIN  54  51  90 NE12G23   30.30S FOG
GROTON         CLOUDY    59  55  87 NE17G24   30.28F
NEW HAVEN      CLOUDY    56  54  93 N13       30.29R FOG
CHESTER        DRIZZLE   55  54  94 NE13G18   30.29S
MERIDEN        CLOUDY    57  53  86 N7        30.31F
WILLIMANTIC    LGT RAIN  56  54  93 NE12      30.34S FOG
$$

MEZ002-015-021-024-NHZ003-005-008-011-012-014-VTZ005-008-010000-
NORTHERN NEW ENGLAND

CITY           SKY/WX    TMP DP  RH WIND       PRES   REMARKS
PORTLAND ME    CLOUDY    54  44  69 NE8       30.45F
BANGOR ME      MOCLDY    57  43  59 S7        30.46S
CONCORD NH     CLOUDY    55  35  47 NE5       30.43S
MANCHESTER NH  CLOUDY    55  45  68 NE6       30.41S
NASHUA NH      CLOUDY    55  48  77 VRB6      30.42S
PORTSMOUTH NH  CLOUDY    55  46  71 NE10      30.41F
JAFFREY NH     CLOUDY    52  42  69 VRB3      30.41S
KEENE NH       CLOUDY    54  45  71 NE5       30.41S
BURLINGTON VT  CLOUDY    61  43  51 SE7       30.40S
MT. WASHINGTON MOCLDY    46   1  15 SE22        N/A
$$

NYZ052-076-010000-
EASTERN NEW YORK

CITY           SKY/WX    TMP DP  RH WIND       PRES   REMARKS
ALBANY         LGT RAIN  59  48  67 SE3       30.35S
NEW YORK CITY  LGT RAIN  61  58  90 NE21G30   30.25R FOG
$$

ANZALL-010000-
MARINE OBSERVATIONS

STATION/POSITION TIME  TEMP    WIND        PRES    VSBY  WAVE
                       AIR SEA DIR/SP/G                  HT/PER
                 (UTC) (F)     (DEG/KT/KT) (MB)    (MI)  (FT/S)
BOSTON BUOY      2250   59 61   50/ 17/ 21 1028.5F         7/ 8
BUZZARDS BAY     2300   59      50/ 28/ 30 1026.0F
NANTUCKET SOUND  2250   60 61   60/ 19/ 23 1026.2F         4/ 4
MASS BAY-STELLWA 2204   59 60   60/ 16/ 19 1028.9F  1 7/8
ISLE OF SHOALS   2300   56      50/ 19/ 21 1029.3F
S OF BLOCK IS    2155      64                N/A          10/ 8
$$

......................KEY.........................
  SKY/WX - SKY CONDITION/PRESENT WEATHER
  TMP    - TEMPERATURE IN FAHRENHEIT
  DWPT   - DEWPOINT IN FAHRENHEIT
  RH     - RELATIVE HUMIDITY IN PERCENT
  WIND   - DIRECTION AND SPEED IN MPH
  PRES   - MEAN SEA LEVEL PRESSURE IN INCHES OF HG
  WCI    - WIND CHILL INDEX
  VSB    - VISIBILITY IN MILES
  HX     - HEAT INDEX
  TC     - TEMPERATURE IN CELSIUS
  VRB    - VARIABLE WIND DIRECTION
  N/A    - NOT AVAILABLE



USA.gov is the U.S. government's official web portal to all federal, state and local government web resources and services.